Terminal Aerodrome Forecast
Issued by NWS

Home | Current Version | Previous Version | Text Only | Print | Product List | Glossary On
Versions: 1 2 3 4 5 6 7 8 9 10 11 12 13 14 15 16 17 18 19 20
000
FTUS46 KSEW 271900 AAA
TAFHQM
TAF AMD
KHQM 271916Z 2719/2818 25006KT P6SM VCSH OVC006
     FM272100 25005KT 4SM -RA BR OVC007
     FM280600 01003KT 4SM BR OVC007=

USA.gov is the U.S. government's official web portal to all federal, state and local government web resources and services.